CAPE
1268 976 2292 1869 1518 1974 2344 1836 1625 1877 1767 1758 1594 1412 1533 1517 1681 1900 2001 1890 1892 1826 1809 1804 1696 1810 1986 1976 2190 2436 2525 2461 2701 2702 1983 2111 2611 2975 2599 2009 3022 1465 1866
1166 1115 2434 2177 1785 1915 2211 2531 2010 1838 1827 1734 1625 1569 1500 1581 1543 1669 1954 2056 2128 1761 1544 1420 1539 1721 1804 1723 2210 2067 2289 2402 2156 2113 2222 2095 2281 2036 1829 2391 3077 2489 2440
1180 1310 1630 2485 2078 1968 2342 2856 2540 1746 1635 1648 1730 1732 1489 1526 1464 1464 1473 1788 1881 1870 1808 1652 1596 1690 1917 1492 1429 1799 1921 2167 1937 1788 1148 1167 1766 1864 1921 2018 2336 2415 2560
720 806 1334 2460 2501 1948 2304 2272 2598 2206 1860 2024 1961 2364 1667 1576 1451 1532 1404 1216 1438 1467 1557 1613 1756 1595 2065 1813 1641 1854 1664 1801 1721 1365 929 586 1181 1677 1716 1884 1941 2019 1998
471 628 1452 2577 2718 2115 1796 1670 1955 2079 1691 1754 1197 1161 1523 1340 1524 1539 1704 1630 1451 1332 1330 1417 1553 1748 1930 1704 1636 1739 1472 1083 868 574 182 440 553 1402 1575 1632 1620 1597 1519
461 675 1805 2309 2112 1784 1756 1631 1542 1464 1265 1302 747 406 417 417 35 287 1114 1332 1167 1166 1260 1646 1910 1991 1998 1360 1398 1491 951 395 210 239 901 1231 838 1093 1209 1186 1248 1692 1682
436 835 1268 1901 723 1865 1699 1624 1197 484 334 997 854 405 424 798 107 496 1103 1117 875 1127 1394 1631 1734 1649 1813 1376 1521 1174 833 785 265 380 605 1370 647 1081 473 904 898 1146 1589
399 553 1219 441 909 1219 975 574 397 452 53 941 530 16 162 208 722 160 249 1040 1017 1155 1498 1630 1727 1748 1807 1753 1141 968 234 332 753 126 415 803 1315 718 309 398 658 700 1255
521 1181 1206 625 868 660 440 301 107 22 89 146 240 451 157 424 642 323 309 1109 1388 1531 1781 1636 1493 1262 1345 1346 1068 716 913 827 878 1354 432 695 1271 631 500 252 447 444 655
889 1097 1221 697 642 1100 81 293 144 58 198 194 34 188 101 329 299 134 586 1276 1314 1596 1097 1273 1303 1587 1511 1467 1234 1009 861 895 684 897 388 494 1026 524 663 417 282 347 485
856 892 1244 807 1257 420 141 380 357 165 222 274 235 229 176 968 600 300 935 1156 1400 1589 984 1205 1418 1599 1668 1129 880 993 885 554 734 931 614 818 866 758 583 361 310 339 457
719 995 1037 1355 1525 477 167 449 856 357 535 343 538 223 474 275 227 414 766 1289 1157 1298 1221 1347 1596 1735 1382 1275 1268 1158 1177 698 904 756 648 1256 886 688 824 586 372 537 644
726 919 1111 1454 1649 815 1450 1956 921 237 237 335 110 799 569 32 528 735 708 469 652 836 577 1030 896 1357 1549 1849 1509 1433 1401 757 870 776 613 1263 508 522 610 869 881 738 677
1094 1062 981 1181 1639 1648 2074 1640 877 773 457 291 82 757 654 321 560 462 669 117 333 816 1535 1568 867 1556 1192 1285 1351 1841 1390 676 656 1059 634 777 584 382 588 892 1265 1225 1168
677 1038 1095 1196 1399 1438 1501 1425 1778 829 915 150 529 545 1139 360 1358 1406 458 237 629 1351 1186 1228 1883 2185 2108 1448 1635 1930 1803 1183 332 906 691 701 739 864 703 669 1300 1298 1316
859 813 930 1199 1194 1094 1229 1087 760 977 649 1342 1388 1392 677 1784 671 600 169 187 286 1951 1710 1652 1738 1913 1520 776 1163 1798 1521 1647 588 519 1088 913 939 1259 1651 874 910 832 877
919 1045 818 1145 1068 1088 1553 1547 1785 1251 227 818 1789 924 845 262 866 792 293 1053 902 2285 1438 1583 1761 1943 1680 923 863 1654 1643 2123 634 410 553 746 1266 1678 1942 2134 1995 2023 1745
1068 1220 1374 932 801 1081 1240 1876 1834 1848 355 1604 1897 1464 844 415 868 1010 1074 584 1625 2426 1870 1333 1924 2098 1646 1865 2005 2442 2309 2078 856 462 400 429 897 1269 1700 2199 2220 1963 1595
1435 1600 1515 1240 1328 1280 1426 2101 1961 1330 596 489 1566 1500 971 772 913 1345 1145 1959 1810 2154 1618 1397 1015 1222 2485 1886 1844 2098 2123 2097 1303 452 135 207 423 582 807 1998 2150 2102 1469
1496 1730 1315 1327 1689 1614 2351 1832 2045 728 509 125 443 1192 1288 841 1002 1548 969 2380 1977 2487 2289 1218 1838 1565 1881 1312 1457 1844 2119 1628 1863 1007 257 98 25 270 576 958 1217 1175 1834
1307 1424 1521 1821 1952 2091 1844 1522 915 718 747 788 726 647 1408 1297 1091 1830 1581 2043 1976 2530 2210 1883 2174 2066 1535 1383 1554 1815 2256 1472 1306 1988 868 587 324 222 1056 849 778 620 984
1253 1645 1914 2098 2155 2333 2720 1888 1169 1187 1207 375 484 1322 1054 1265 1621 1982 2102 1925 2582 1520 2002 1896 2251 2015 1124 1500 1983 848 1768 1957 1817 1486 1828 1544 595 500 679 675 828 1416 1090
1373 1809 2136 2253 2347 2262 1811 2609 1179 1379 942 783 930 736 924 1439 1812 1978 1823 2964 2057 2248 1407 2011 2379 2611 1733 1414 2306 2341 1741 694 1937 1641 1901 1667 1666 1231 487 573 644 804 1008
1210 1853 2256 2662 2646 2289 1945 1997 1466 990 662 716 867 543 854 1593 1605 1885 2051 2067 2030 1655 2468 1880 2182 2502 2172 1783 1504 1318 1674 1693 1819 2385 2128 1954 1579 1927 1668 824 680 761 1006
1376 1627 2190 2683 2805 2409 2302 1919 1547 1314 1197 1326 1303 1832 2878 2471 1765 1669 2182 2495 2107 1909 2246 2865 2461 2298 2218 1363 1224 1348 1668 1968 1862 1646 713 1557 1604 1820 1494 1658 1416 1206 1266
1427 1761 2124 2640 3174 2828 2515 1888 1832 2176 1753 1114 1237 1507 1141 1611 1713 2346 2060 2792 2693 2821 2517 2205 2273 2380 2372 2431 2217 1172 1874 1529 1756 2174 1282 1483 1069 1315 1797 1844 1915 2046 1550
CIN
-0 -22 -0 -0 -0 -0 -0 -0 -0 -0 -0 -0 -0 -0 -0 -0 -0 -0 -0 -0 -0 -0 -0 -0 -0 -0 -0 -0 -0 -0 -0 -0 -0 -0 -4 -1 -0 -0 -4 -8 -2 -7 -1
-0 -6 -0 -0 -0 -0 -0 -0 -0 -0 -0 -0 -0 -0 -0 -0 -0 -0 -0 -0 -0 -0 -0 -0 -0 -0 -0 -1 -0 -0 -0 -0 -0 -0 -0 -0 -0 -20 -22 -3 -1 -0 -1
-0 -2 -0 -0 -0 -0 -0 -0 -0 -0 -0 -0 -0 -0 -0 -0 -0 -0 -0 -0 -0 -0 -0 -0 -0 -0 -0 -4 -9 -0 -0 -0 -2 -0 -5 -0 -0 -3 -38 -12 -0 -0 -0
-3 -13 -2 -1 -0 -0 -0 -0 -0 -0 -0 -0 -0 -0 -0 -1 -0 -0 -0 -0 -0 -0 -0 -0 -0 -0 -0 -0 -0 -0 -0 -0 -1 -9 -5 -29 -2 -0 -27 -14 -3 -24 -8
-7 -13 -0 -0 -0 -0 -3 -4 -2 -0 -4 -1 -0 -2 -2 -0 -1 -3 -1 -0 -0 -0 -0 -0 -0 -0 -0 -0 -0 -0 -6 -16 -36 -66 -117 -68 -36 -6 -15 -14 -4 -26 -29
-9 -6 -0 -0 -0 -0 -0 -1 -4 -5 -2 -3 -11 -15 -5 -6 -100 -47 -2 -3 -0 -0 -0 -0 -0 -0 -0 -0 -2 -0 -8 -45 -68 -43 -27 -2 -2 -24 -16 -24 -12 -6 -38
-0 -4 -0 -0 -38 -0 -3 -3 -10 -37 -27 -0 -3 -5 -6 -3 -35 -22 -7 -0 -2 -0 -0 -0 -0 -0 -0 -0 -0 -7 -7 -1 -29 -18 -7 -3 -3 -21 -24 -20 -22 -25 -32
-3 -9 -0 -47 -26 -35 -41 -69 -81 -43 -83 -12 -2 -44 -12 -17 -15 -42 -27 -4 -0 -0 -0 -0 -0 -1 -0 -1 -1 -11 -61 -23 -0 -75 -33 -0 -29 -32 -39 -20 -19 -35 -31
-1 -4 -0 -6 -11 -47 -64 -91 -96 -104 -44 -48 -28 -12 -14 -3 -1 -11 -11 -1 -0 -0 -0 -0 -2 -7 -3 -4 -4 -5 -5 -9 -0 -7 -64 -16 -41 -33 -21 -15 -8 -31 -56
-2 -0 -0 -0 -12 -5 -109 -48 -50 -68 -5 -14 -40 -6 -24 -30 -8 -13 -5 -3 -0 -0 -0 -0 -2 -0 -2 -4 -8 -1 -2 -2 -0 -0 -74 -51 -34 -33 -4 -0 -14 -22 -68
-6 -6 -0 -0 -0 -52 -104 -5 -7 -37 -2 -4 -13 -4 -16 -3 -10 -31 -3 -4 -1 -0 -3 -7 -4 -2 -2 -16 -22 -18 -16 -1 -16 -13 -58 -37 -36 -27 -10 -2 -9 -35 -64
-0 -13 -0 -0 -0 -27 -49 -0 -0 -12 -4 -11 -3 -11 -10 -23 -44 -24 -2 -9 -6 -6 -18 -18 -16 -16 -18 -19 -17 -21 -1 -16 -4 -35 -38 -33 -34 -36 -1 -12 -29 -35 -49
-0 -0 -5 -0 -0 -0 -0 -0 -0 -1 -1 -5 -19 -4 -13 -54 -1 -1 -1 -1 -0 -38 -9 -31 -34 -40 -0 -2 -42 -26 -21 -0 -5 -31 -44 -29 -51 -44 -17 -1 -2 -20 -47
-0 -0 -0 -0 -0 -0 -1 -0 -1 -1 -7 -5 -22 -4 -1 -22 -3 -48 -2 -0 -2 -6 -11 -46 -25 -0 -0 -0 -0 -0 -1 -4 -20 -3 -97 -58 -29 -32 -16 -6 -0 -16 -18
-5 -4 -2 -0 -0 -9 -12 -1 -2 -0 -0 -7 -2 -2 -0 -31 -9 -8 -3 -5 -3 -15 -16 -2 -8 -1 -1 -1 -0 -1 -3 -9 -0 -12 -50 -64 -25 -4 -3 -6 -4 -8 -8
-3 -0 -16 -4 -0 -0 -0 -0 -0 -1 -3 -4 -2 -1 -11 -1 -1 -2 -5 -0 -0 -19 -20 -6 -2 -9 -7 -1 -2 -0 -1 -5 -2 -2 -25 -28 -12 -1 -0 -0 -1 -16 -25
-0 -0 -1 -2 -1 -0 -0 -0 -0 -0 -26 -0 -0 -5 -0 -18 -2 -3 -4 -10 -0 -21 -4 -2 -0 -6 -8 -1 -4 -0 -0 -2 -0 -0 -1 -0 -0 -0 -0 -0 -0 -0 -0
-7 -2 -2 -0 -0 -0 -0 -0 -0 -4 -3 -3 -0 -1 -0 -39 -0 -5 -0 -3 -2 -3 -1 -0 -15 -12 -10 -5 -17 -11 -12 -10 -0 -0 -0 -0 -0 -0 -0 -0 -0 -0 -0
-17 -4 -5 -0 -4 -1 -0 -0 -0 -0 -3 -1 -3 -5 -0 -0 -0 -3 -1 -17 -2 -13 -30 -4 -0 -4 -5 -20 -1 -1 -32 -5 -0 -0 -2 -3 -2 -0 -3 -2 -0 -0 -0
-4 -2 -0 -0 -0 -0 -0 -0 -0 -0 -1 -23 -2 -2 -2 -1 -0 -2 -0 -0 -1 -6 -2 -0 -5 -1 -3 -2 -8 -2 -12 -3 -11 -1 -2 -0 -11 -4 -1 -24 -6 -2 -0
-1 -0 -0 -0 -0 -0 -0 -0 -0 -0 -0 -1 -5 -1 -1 -2 -1 -0 -0 -2 -1 -5 -10 -6 -0 -2 -35 -1 -1 -7 -5 -0 -0 -9 -0 -0 -8 -3 -0 -0 -1 -0 -24
-0 -0 -0 -0 -0 -0 -0 -0 -0 -0 -8 -1 -7 -2 -2 -0 -0 -0 -7 -3 -3 -0 -6 -6 -1 -3 -0 -1 -1 -57 -19 -0 -19 -9 -13 -7 -4 -0 -0 -0 -1 -6 -5
-0 -0 -0 -0 -0 -0 -0 -0 -0 -1 -1 -0 -0 -1 -0 -0 -0 -0 -5 -4 -3 -3 -1 -7 -10 -1 -17 -0 -7 -1 -1 -25 -7 -0 -1 -1 -0 -1 -0 -0 -0 -2 -1
-0 -0 -0 -1 -0 -0 -0 -0 -0 -0 -4 -0 -5 -0 -0 -0 -0 -0 -0 -0 -0 -1 -1 -1 -1 -14 -7 -0 -2 -3 -13 -17 -3 -6 -9 -10 -0 -6 -15 -7 -0 -0 -4
-1 -0 -0 -0 -1 -0 -0 -0 -0 -0 -2 -5 -0 -1 -0 -0 -0 -0 -0 -0 -1 -5 -0 -0 -1 -6 -1 -3 -1 -0 -5 -1 -5 -6 -28 -0 -0 -11 -4 -1 -4 -1 -0
-7 -0 -0 -0 -0 -0 -0 -0 -0 -2 -15 -21 -3 -0 -0 -0 -0 -0 -0 -0 -0 -2 -0 -0 -0 -0 -4 -5 -3 -2 -6 -1 -42 -19 -2 -10 -24 -39 -18 -13 -21 -26 -19
Wind_Speed
19 19 11 12 13 14 18 19 19 17 14 13 11 10 7 11 8 6 5 4 3 3 5 5 6 6 8 9 11 14 18 20 22 22 23 17 25 25 20 19 18 19 20
26 22 16 15 14 15 16 19 19 16 13 13 11 10 6 9 7 6 3 2 2 3 3 4 6 7 10 12 14 16 20 21 23 22 21 12 14 24 24 29 27 20 20
29 24 20 18 14 16 17 17 19 19 13 12 11 10 7 6 7 7 4 4 2 2 3 3 6 8 10 11 12 15 19 20 20 20 13 12 8 11 20 27 22 23 22
26 24 23 19 17 20 20 21 21 20 19 16 15 12 9 3 7 8 9 7 5 4 3 3 5 5 7 10 12 16 20 21 22 16 11 8 11 14 18 22 18 24 23
27 28 24 19 22 19 21 25 19 18 18 20 21 19 12 8 11 8 8 7 5 4 4 5 6 6 8 7 9 16 17 15 15 12 13 7 6 18 19 19 18 19 21
26 28 24 23 26 18 25 26 18 19 23 20 19 7 2 9 nan 13 11 9 6 6 6 6 6 5 7 6 10 13 13 7 10 3 5 11 5 17 17 16 20 18 23
22 28 24 24 23 23 20 20 22 21 15 18 14 5 3 5 10 13 9 9 8 7 8 8 6 6 8 11 15 24 19 11 11 7 5 9 9 15 11 10 15 18 22
22 23 24 22 18 21 20 23 21 17 nan 20 17 nan 5 6 12 16 10 7 9 9 9 10 7 6 6 9 16 19 23 20 16 3 8 9 18 13 10 5 15 14 22
18 21 20 16 17 17 21 23 22 nan nan 13 21 7 7 11 11 6 9 11 10 11 9 8 13 10 9 10 13 18 22 22 15 7 17 3 16 13 6 9 14 17 20
20 18 16 12 11 12 nan 10 8 nan 6 11 nan 4 14 5 13 8 11 12 12 10 6 11 12 16 13 12 15 15 16 21 17 18 13 9 11 10 5 18 24 20 17
14 13 13 14 13 17 4 12 8 3 5 7 2 5 4 7 3 3 10 4 10 11 13 17 19 19 18 21 19 17 20 20 17 16 9 12 12 7 14 20 14 14 17
18 12 14 13 12 14 13 8 9 12 15 12 10 6 5 11 13 16 7 6 10 13 12 16 20 20 21 13 21 22 20 17 21 10 15 20 20 16 12 20 18 18 18
19 15 11 11 9 12 10 11 11 14 8 5 13 8 8 nan 12 6 4 4 8 14 7 8 19 17 19 19 21 22 20 18 17 8 15 19 21 22 21 18 18 13 14
20 17 14 9 8 12 13 13 14 10 9 10 nan 7 6 6 9 13 15 5 7 5 0 11 17 7 16 15 21 16 16 20 14 9 15 15 16 17 20 18 17 15 14
19 16 11 12 9 10 14 13 12 13 11 10 8 10 6 11 13 10 12 13 10 9 9 7 13 9 13 19 17 18 14 19 13 8 10 16 14 16 15 13 17 15 16
16 15 17 9 11 13 11 12 12 11 15 8 9 7 4 15 11 9 8 7 4 10 12 9 10 9 15 15 16 18 15 20 14 8 9 12 15 14 16 15 14 14 13
16 14 11 16 9 12 13 12 12 15 12 8 9 8 2 12 11 17 9 11 8 8 13 8 10 9 14 12 13 17 17 15 11 16 9 9 13 17 16 15 15 13 14
10 14 12 10 10 11 11 12 11 8 13 9 10 10 10 16 12 12 11 6 6 6 10 9 10 7 10 13 11 14 15 14 9 14 11 10 11 11 13 15 13 12 15
18 13 12 9 8 11 8 9 12 14 13 5 14 12 12 11 9 14 9 6 7 15 12 12 8 10 11 13 9 9 13 11 13 14 7 12 13 10 11 13 14 15 16
16 12 11 10 9 11 9 5 7 13 12 7 12 12 14 12 9 11 9 12 11 10 8 12 12 11 10 15 9 5 7 8 11 5 9 nan nan 12 11 12 12 12 15
16 14 13 10 11 7 7 4 4 8 1 5 12 8 5 9 8 9 10 6 12 13 17 13 9 10 9 5 10 8 5 5 7 7 9 8 8 9 9 9 11 10 10
13 13 12 13 11 7 6 3 4 1 0 4 4 7 5 5 10 8 12 7 8 8 13 12 9 11 7 8 13 7 3 3 4 3 7 6 8 9 7 9 14 7 8
12 15 16 11 11 6 5 6 4 6 6 5 2 4 6 7 8 11 9 11 7 14 10 6 6 11 8 10 12 11 8 2 2 2 4 5 4 6 7 7 9 6 9
11 15 16 16 14 8 8 3 6 5 8 5 4 4 6 6 8 9 8 7 8 9 16 9 3 7 11 10 9 7 10 8 10 7 3 4 6 5 6 6 7 7 8
9 13 14 15 14 13 9 5 4 3 8 4 3 6 6 9 8 8 10 8 9 8 12 9 9 9 10 15 9 4 6 4 3 2 15 4 4 5 4 5 5 6 8
16 13 12 14 13 12 9 9 6 3 6 10 9 11 4 9 9 10 10 10 9 9 14 10 9 5 9 12 13 8 8 8 15 8 8 11 15 13 4 4 1 3 5
Wind_Direction
311 295 290 300 296 304 309 304 302 308 318 317 317 322 331 346 351 333 306 296 296 286 285 292 298 304 301 303 298 290 287 285 285 286 296 296 279 254 233 242 255 252 250
304 304 299 300 296 293 304 307 293 301 307 310 305 316 313 349 11 3 335 10 335 295 308 310 304 300 301 296 292 290 293 289 284 289 301 306 286 273 240 223 233 238 246
302 297 305 299 293 292 291 300 291 291 289 293 284 279 300 327 31 36 55 74 46 355 358 331 317 308 304 299 302 304 300 294 291 296 311 312 293 291 275 244 236 232 229
302 308 304 292 288 281 281 286 291 280 286 285 286 259 275 290 56 60 78 78 85 51 14 359 349 324 323 313 307 303 296 298 306 307 294 291 303 277 277 254 254 220 223
306 297 301 286 288 280 280 281 296 272 275 276 265 232 238 194 98 79 93 92 82 71 47 31 19 351 326 318 312 313 309 300 298 268 299 325 313 292 272 273 232 228 205
303 302 301 297 285 291 298 265 271 269 268 261 280 332 276 236 nan 91 122 107 81 61 38 29 11 4 8 306 321 309 312 309 21 295 42 332 320 292 283 279 227 233 214
306 296 304 292 300 304 283 262 267 280 251 233 273 276 166 119 110 145 125 107 80 54 33 22 16 38 355 317 325 304 289 162 62 77 27 310 310 300 291 242 238 208 208
295 302 297 297 291 282 292 283 281 261 nan 222 222 nan 182 138 110 107 112 99 82 60 64 51 54 59 3 2 358 339 345 19 44 41 101 340 297 300 295 234 186 187 191
305 288 306 303 300 298 275 276 262 nan nan 250 197 134 104 110 96 69 111 91 74 76 82 43 79 61 64 26 7 16 16 27 38 358 68 23 325 339 351 160 153 161 172
297 304 307 314 316 289 nan 326 280 nan 230 254 nan 165 136 46 110 162 88 67 70 72 80 70 75 82 70 59 53 41 46 53 63 65 336 55 337 3 87 134 112 129 150
306 322 317 319 317 305 18 350 1 297 171 168 166 189 22 136 135 101 90 92 67 58 80 76 71 65 71 59 54 40 46 63 72 78 75 3 355 50 87 131 162 126 131
313 315 325 325 320 320 343 341 331 286 196 200 196 253 235 165 164 176 96 67 78 70 68 91 83 71 68 56 46 45 58 69 53 41 56 18 26 62 81 117 124 122 125
327 308 313 324 317 325 324 305 302 295 256 208 170 215 266 nan 148 111 124 87 72 57 66 161 91 70 64 62 44 45 60 48 53 7 20 19 38 54 74 95 94 107 119
322 303 302 325 311 323 299 311 320 319 318 310 nan 268 267 194 151 150 141 164 161 110 215 18 66 81 85 59 65 58 58 76 50 10 10 13 41 58 72 78 78 82 88
307 301 296 311 305 299 306 312 333 319 306 312 320 272 265 165 164 164 159 143 191 147 135 158 128 93 81 77 66 49 51 64 72 40 27 21 44 55 60 69 69 78 80
300 301 301 303 307 299 309 323 324 315 307 256 282 259 123 166 168 163 177 130 188 164 151 154 142 110 88 81 65 61 45 51 62 79 16 40 48 58 52 49 52 63 73
316 321 317 305 310 307 315 324 312 314 306 284 252 242 178 186 161 174 172 165 213 166 191 141 107 112 97 87 77 61 58 54 32 70 18 34 51 65 60 57 66 63 62
299 320 311 324 318 310 306 307 312 318 294 256 212 195 186 180 173 167 196 160 216 140 182 161 160 123 112 101 82 70 70 47 37 58 51 35 47 57 63 61 58 57 63
304 327 319 4 310 309 309 297 310 324 286 230 194 171 185 190 163 162 191 199 175 132 165 164 162 134 115 84 80 55 78 61 42 47 53 53 48 39 62 41 46 58 59
324 337 342 321 303 293 284 296 326 321 284 194 192 216 241 201 174 172 195 195 154 167 170 171 175 152 134 133 104 89 66 65 61 39 50 nan nan 70 33 41 56 62 59
343 352 350 320 310 300 300 319 316 348 87 167 219 210 208 184 204 176 156 224 169 166 187 171 125 92 143 152 103 67 40 71 80 60 48 52 41 59 23 30 60 63 60
356 15 13 345 345 320 267 212 224 277 275 15 237 246 174 213 196 164 178 195 181 190 205 189 169 157 206 205 139 196 141 42 86 114 70 79 36 47 62 68 81 28 35
352 18 26 13 351 357 317 223 222 253 229 210 251 122 218 223 201 184 189 174 220 184 247 227 170 173 170 217 192 162 168 134 289 24 25 53 49 58 42 60 63 63 90
351 4 22 0 7 17 336 340 294 306 299 292 216 247 266 227 206 222 212 218 213 204 222 233 152 151 151 178 189 202 193 187 212 160 344 357 10 49 37 42 46 48 43
1 8 12 8 3 6 3 351 296 255 269 275 240 290 232 257 224 215 240 220 236 221 244 199 230 164 150 163 180 227 210 221 247 138 188 316 336 2 351 37 41 28 31
25 23 358 3 5 12 5 5 5 259 226 253 251 246 243 280 264 253 255 244 236 235 251 242 218 196 168 195 190 217 215 233 227 222 298 235 224 145 238 303 355 329 341